Location: Torch Lake Township
(45.0753°N, 85.3586°W)
Time: 21:47:53
(UTC-04:00)

Amateur Radio Satellites - All Passes

Search period start: 27 March 2015 21:17
Search period end: 28 March 2015 21:17
Location: Torch Lake Township, 45.0753°N, 85.3586°W

Satellite Date Start Highest point End Downlink Frequencies (MHz)
Time Altitude Azimuth
BRITE-PL 27 Mar 21:22:43 21:27:30 78° 258° (WSW) 21:31:57 437.365/2234.400
BEESAT 3 27 Mar 21:23:51 21:27:26 28° 244° (WSW) 21:30:55 437.485
CUSAT 1 27 Mar 21:30:41 21:31:55 12° 94° (E) 21:33:12 437.405
CANX-2 27 Mar 21:33:09 21:37:23 84° 77° (ENE) 21:41:41 2200.000
AIST 2 27 Mar 21:44:07 21:48:20 58° 239° (WSW) 21:52:26 435.215
SO-50 27 Mar 21:45:46 21:50:09 38° 316° (NW) 21:54:40 436.795
HO-68 27 Mar 21:46:04 21:53:14 74° 256° (WSW) 22:00:28 435.675
CUTE 1.7 + AOD 2 27 Mar 21:47:25 21:51:39 76° 258° (WSW) 21:55:56 437.475
STRAND 1 27 Mar 22:00:03 22:04:17 26° 296° (WNW) 22:08:25 437.568
UKube-1 27 Mar 22:01:09 22:04:19 21° 65° (ENE) 22:07:35 .
CUBESAT XI-V 27 Mar 22:02:17 22:04:14 12° 300° (WNW) 22:05:59 437.345
PRISM 27 Mar 22:05:27 22:06:53 11° 300° (WNW) 22:08:08 437.425
DANDE 27 Mar 22:06:28 22:09:16 29° 98° (E) 22:11:43 436.750
DX 1 27 Mar 22:08:16 22:11:49 25° 66° (ENE) 22:15:26 434.975-435.025
DELFI C3 27 Mar 22:11:30 22:15:21 44° 72° (ENE) 22:19:17 145.870
CINEMA 3 27 Mar 22:11:57 22:16:10 82° 75° (ENE) 22:20:21 145.822/145.860
DOVE 4 27 Mar 22:18:14 22:22:27 44° 261° (W) 22:26:30 437.250
AAUSAT CUBESAT 2 27 Mar 22:19:40 22:23:46 55° 260° (W) 22:27:55 437.432
SEEDS 27 Mar 22:19:59 22:23:57 39° 263° (W) 22:27:57 437.485
GOMX 1 27 Mar 22:20:29 22:24:30 30° 264° (W) 22:28:18 467.674
HUMSAT D 27 Mar 22:20:56 22:23:53 20° 66° (ENE) 22:26:58 437.325/437.525
Oscar 11 27 Mar 22:30:05 22:34:25 89° 248° (WSW) 22:38:47 145.826/435.025
UWE-3 27 Mar 22:36:04 22:40:10 68° 75° (ENE) 22:44:19 435.000/436.395/437.385
CUBEBUG 2 27 Mar 22:36:58 22:41:07 84° 74° (ENE) 22:45:18 437.445
FUNcube-1 27 Mar 22:37:01 22:41:04 55° 73° (ENE) 22:45:08 145.935
VELOX 1 27 Mar 22:40:24 22:43:56 24° 66° (ENE) 22:47:32 145.980
AISAT 27 Mar 22:44:01 22:47:42 27° 67° (ENE) 22:51:28 437.250
COMPASS 1 27 Mar 22:45:59 22:49:31 26° 266° (W) 22:53:03 437.405
CUBEBUG 1 27 Mar 22:47:44 22:49:55 14° 62° (ENE) 22:52:17 437.445
ZACube-1 27 Mar 22:49:02 22:53:10 76° 75° (ENE) 22:57:20 437.345
PCSat 27 Mar 23:02:55 23:05:31 14° 29° (NNE) 23:08:15 145.827
ESTCUBE 1 27 Mar 23:07:05 23:10:42 24° 66° (ENE) 23:14:24 437.505/2401.250
RS-15 27 Mar 23:08:36 23:18:48 41° 329° (NNW) 23:29:13 29.354- 29.394
GONETS M04 27 Mar 23:08:58 23:15:20 21° 303° (WNW) 23:21:24
CUSAT 1 27 Mar 23:12:38 23:14:37 17° 288° (WNW) 23:16:26 437.405
ANTELSAT 27 Mar 23:20:12 23:23:13 18° 90° (E) 23:26:25 437.575/2403.000
50 SAT 27 Mar 23:28:09 23:32:02 70° 75° (ENE) 23:35:59 437.505
SO-50 27 Mar 23:30:33 23:32:08 11° 338° (NNW) 23:33:37 436.795
UKube-1 27 Mar 23:36:04 23:40:13 43° 261° (W) 23:44:23 .
HO-68 27 Mar 23:38:54 23:42:24 13° 277° (W) 23:45:24 435.675
QB50P1 27 Mar 23:42:05 23:44:14 14° 89° (E) 23:46:36 145.935-145.965
DX 1 27 Mar 23:43:57 23:47:57 34° 263° (W) 23:51:56 434.975-435.025
DUCHIFAT 1 27 Mar 23:44:56 23:47:15 15° 89° (E) 23:49:44 145.980
DELFI C3 27 Mar 23:48:06 23:50:49 17° 270° (W) 23:53:26 145.870
QB50P2 27 Mar 23:55:30 23:58:36 20° 92° (E) 00:01:48 145.880/145.840
HUMSAT D 27 Mar 23:55:37 23:59:27 38° 263° (W) 00:03:19 437.325/437.525
UNISAT 6 28 Mar 00:15:20 00:19:52 62° 101° (ESE) 00:24:28 437.425
FUNcube-1 28 Mar 00:15:37 00:17:50 14° 271° (W) 00:19:55 145.935
UWE-3 28 Mar 00:15:56 00:17:18 11° 273° (W) 00:18:27 435.000/436.395/437.385
VELOX 1 28 Mar 00:16:11 00:20:21 37° 263° (W) 00:24:29 145.980
AISAT 28 Mar 00:20:11 00:24:14 33° 264° (W) 00:28:15 437.250
CUBEBUG 1 28 Mar 00:21:24 00:25:49 70° 257° (WSW) 00:30:13 437.445
POPSAT HIP 1 28 Mar 00:24:07 00:28:05 38° 97° (E) 00:32:03 437.405
TIGRISAT 28 Mar 00:26:29 00:31:02 78° 101° (ESE) 00:35:40 435.000
BUGSAT 1 28 Mar 00:33:35 00:37:16 34° 97° (E) 00:40:58 437.445
TISAT 1 28 Mar 00:34:46 00:38:39 37° 70° (ENE) 00:42:34 437.305
NANOSAT C BR1 28 Mar 00:35:26 00:39:33 51° 99° (E) 00:43:41 145.865
POLYITAN 1 28 Mar 00:37:54 00:42:05 56° 100° (E) 00:46:16 437.675
SPROUT 28 Mar 00:38:02 00:42:09 47° 72° (ENE) 00:46:17 437.525
ESTCUBE 1 28 Mar 00:43:07 00:47:24 39° 263° (W) 00:51:41 437.505/2401.250
PCSat 28 Mar 00:44:59 00:50:17 52° 52° (NE) 00:55:35 145.827
ISS 28 Mar 00:52:03 00:55:13 53° 146° (SE) 00:58:25 145.825
ANTELSAT 28 Mar 00:55:55 01:00:21 52° 288° (WNW) 01:04:51 437.575/2403.000
YUBILEINY 28 Mar 01:02:42 01:10:37 36° 67° (ENE) 01:18:36 435.215
QB50P1 28 Mar 01:16:24 01:20:33 56° 287° (WNW) 01:24:41 145.935-145.965
ITUPSAT 1 28 Mar 01:18:28 01:22:01 21° 63° (ENE) 01:25:42 437.325
DUCHIFAT 1 28 Mar 01:19:22 01:23:29 53° 287° (WNW) 01:27:35 145.980
RS-15 28 Mar 01:26:02 01:35:09 28° 2° (N) 01:44:35 29.354- 29.394
QB50P2 28 Mar 01:30:43 01:34:42 39° 289° (WNW) 01:38:38 145.880/145.840
UNISAT 6 28 Mar 01:53:20 01:56:15 17° 297° (WNW) 01:59:02 437.425
POPSAT HIP 1 28 Mar 02:00:32 02:03:47 21° 294° (WNW) 02:06:56 437.405
TIGRISAT 28 Mar 02:05:00 02:07:16 13° 299° (WNW) 02:09:23 435.000
SWISSCUBE 28 Mar 02:05:45 02:10:29 62° 73° (ENE) 02:15:16 437.505
BEESAT 28 Mar 02:09:04 02:13:47 62° 72° (ENE) 02:18:33 436.000
BUGSAT 1 28 Mar 02:09:28 02:12:37 22° 294° (WNW) 02:15:39 437.445
TISAT 1 28 Mar 02:11:20 02:14:36 21° 267° (W) 02:17:48 437.305
NANOSAT C BR1 28 Mar 02:12:19 02:15:05 17° 296° (WNW) 02:17:43 145.865
POLYITAN 1 28 Mar 02:15:01 02:17:38 16° 297° (WNW) 02:20:07 437.675
SPROUT 28 Mar 02:15:35 02:18:33 17° 270° (W) 02:21:22 437.525
ISS 28 Mar 02:28:44 02:31:45 34° 343° (NNW) 02:34:47 145.825
PCSat 28 Mar 02:28:58 02:33:27 26° 251° (WSW) 02:37:47 145.827
KKS-1 28 Mar 02:46:25 02:50:12 29° 67° (ENE) 02:54:04 437.445
Oscar 19 28 Mar 02:50:46 02:55:42 43° 98° (E) 03:00:38 437.125/150
Gurwin Techsat 1B 28 Mar 02:53:51 02:55:59 13° 85° (E) 02:58:26 435.225
ITUPSAT 1 28 Mar 02:54:56 02:59:37 50° 261° (W) 03:04:20 437.325
SO-50 28 Mar 02:55:08 02:57:47 14° 27° (NNE) 03:00:33 436.795
YUBILEINY 28 Mar 02:59:20 03:07:55 56° 269° (W) 03:16:22 435.215
STARS 28 Mar 03:22:06 03:26:14 42° 70° (ENE) 03:30:24 437.465
RS-15 28 Mar 03:40:41 03:51:21 45° 35° (NE) 04:02:34 29.354- 29.394
SWISSCUBE 28 Mar 03:45:47 03:48:51 16° 271° (W) 03:51:44 437.505
BEESAT 28 Mar 03:49:04 03:52:08 16° 271° (W) 03:55:01 436.000
ITAMSAT 1 28 Mar 03:52:24 03:57:28 52° 100° (E) 04:02:31 435.822/435.867
AO-7 28 Mar 03:59:37 04:01:51 12° 81° (E) 04:04:48 29.400- 29.500
ISS 28 Mar 04:05:59 04:08:45 25° 3° (N) 04:11:30 145.825
MOZHAYETS 4 28 Mar 04:10:41 04:13:08 15° 61° (ENE) 04:15:47
JAS-2 28 Mar 04:11:28 04:14:44 13° 79° (ENE) 04:18:25 435.910
KKS-1 28 Mar 04:22:53 04:26:49 30° 265° (W) 04:30:44 437.445
Oscar 19 28 Mar 04:30:32 04:34:53 27° 295° (WNW) 04:39:08 437.125/150
Gurwin Techsat 1B 28 Mar 04:31:28 04:36:49 88° 286° (WNW) 04:42:09 435.225
O/OREOS (USA 219) 28 Mar 04:32:46 04:35:42 17° 101° (E) 04:38:47 437.305
SO-50 28 Mar 04:34:35 04:39:28 55° 49° (NE) 04:44:19 436.795
M-CUBED/EXP-1 PRIME 28 Mar 04:34:35 04:37:10 17° 56° (NE) 04:40:00 437.505
AIST 1 28 Mar 04:38:07 04:41:27 22° 88° (E) 04:44:52
HORYU 2 28 Mar 04:47:32 04:51:38 33° 96° (E) 04:55:44 437.375
STARS 28 Mar 04:59:39 05:02:55 20° 268° (W) 05:06:06 437.465
YUBILEINY 28 Mar 05:01:54 05:02:54 10° 289° (WNW) 05:03:10 435.215
GONETS M04 28 Mar 05:22:15 05:24:58 12° 47° (NE) 05:28:17
ITAMSAT 1 28 Mar 05:32:35 05:36:41 23° 297° (WNW) 05:40:39 435.822/435.867
ISS 28 Mar 05:42:28 05:45:38 51° 23° (NNE) 05:48:48 145.825
AUBIESAT-1 28 Mar 05:44:28 05:48:28 70° 69° (ENE) 05:52:51 437.475
MOZHAYETS 4 28 Mar 05:45:14 05:49:51 72° 259° (W) 05:54:32
AO-7 28 Mar 05:48:25 05:56:38 63° 103° (ESE) 06:04:52 29.400- 29.500
CUBESAT XI-V 28 Mar 05:53:19 05:55:40 14° 61° (ENE) 05:58:13 437.345
RS-15 28 Mar 05:53:20 06:04:45 73° 240° (WSW) 06:16:37 29.354- 29.394
JAS-2 28 Mar 05:53:38 06:01:28 69° 101° (E) 06:08:45 435.910
STRAND 1 28 Mar 06:02:55 06:04:48 12° 57° (ENE) 06:06:56 437.568
M-CUBED/EXP-1 PRIME 28 Mar 06:07:39 06:11:35 59° 255° (WSW) 06:15:54 437.505
O/OREOS (USA 219) 28 Mar 06:10:13 06:14:45 54° 299° (WNW) 06:19:17 437.305
Gurwin Techsat 1B 28 Mar 06:13:15 06:16:07 14° 302° (WNW) 06:18:45 435.225
AIST 1 28 Mar 06:14:49 06:18:55 36° 286° (WNW) 06:23:00
SO-50 28 Mar 06:15:48 06:19:44 23° 247° (WSW) 06:23:32 436.795
HORYU 2 28 Mar 06:24:22 06:28:12 27° 293° (WNW) 06:31:57 437.375
VERMONT LUNAR 28 Mar 06:33:09 06:33:29 10° 151° (SSE) 06:33:54 437.305
GONETS M04 28 Mar 07:15:59 07:24:34 53° 73° (ENE) 07:33:12
ISS 28 Mar 07:19:07 07:21:54 26° 221° (SW) 07:24:40 145.825
PRISM 28 Mar 07:19:42 07:23:55 78° 75° (ENE) 07:28:10 437.425
AUBIESAT-1 28 Mar 07:22:21 07:24:00 12° 269° (W) 07:25:28 437.475
CUBESAT XI-V 28 Mar 07:27:50 07:32:34 78° 256° (WSW) 07:37:19 437.345
STRAND 1 28 Mar 07:38:06 07:43:15 78° 75° (ENE) 07:48:26 437.568
JAS-2 28 Mar 07:39:18 07:45:56 30° 300° (WNW) 07:52:05 435.910
Cubesat XI-IV 28 Mar 07:40:58 07:46:05 44° 98° (E) 07:51:10 437.490
CUTE-I 28 Mar 07:41:16 07:46:21 44° 98° (E) 07:51:25 437.470
AO-7 28 Mar 07:41:47 07:49:05 35° 303° (WNW) 07:56:14 29.400- 29.500
CUSAT 1 28 Mar 08:01:55 08:04:54 20° 73° (ENE) 08:08:38 437.405
VERMONT LUNAR 28 Mar 08:07:39 08:10:35 28° 166° (SSE) 08:13:31 437.305
RS-15 28 Mar 08:08:06 08:15:31 18° 260° (W) 08:22:17 29.354- 29.394
PHONESAT 2.4 28 Mar 08:35:54 08:38:50 25° 162° (SSE) 08:41:48 2401.200-2431.200
DANDE 28 Mar 08:41:46 08:45:11 35° 77° (ENE) 08:49:39 436.750
PRISM 28 Mar 08:59:27 09:00:03 10° 274° (W) 09:00:23 437.425
HO-68 28 Mar 09:12:50 09:17:38 19° 88° (E) 09:22:43 435.675
GONETS M04 28 Mar 09:13:18 09:21:12 38° 274° (W) 09:28:58
CANX-2 28 Mar 09:18:17 09:20:14 13° 88° (E) 09:22:23 2200.000
STRAND 1 28 Mar 09:20:21 09:23:09 14° 273° (W) 09:25:43 437.568
Cubesat XI-IV 28 Mar 09:21:31 09:26:00 28° 296° (WNW) 09:30:24 437.490
CUTE-I 28 Mar 09:21:45 09:26:15 28° 296° (WNW) 09:30:39 437.470
BRITE-PL 28 Mar 09:25:37 09:29:02 25° 94° (E) 09:32:37 437.365/2234.400
CUTE 1.7 + AOD 2 28 Mar 09:31:50 09:34:33 17° 90° (E) 09:37:25 437.475
CUSAT 1 28 Mar 09:43:54 09:47:42 39° 262° (W) 09:52:38 437.405
VERMONT LUNAR 28 Mar 09:44:47 09:47:55 37° 183° (S) 09:51:05 437.305
TIGRISAT 28 Mar 09:55:24 09:55:32 10° 59° (ENE) 09:55:53 435.000
AAUSAT CUBESAT 2 28 Mar 10:01:30 10:04:38 20° 91° (E) 10:07:53 437.432
SEEDS 28 Mar 10:02:28 10:06:13 29° 95° (E) 10:09:58 437.485
CINEMA 3 28 Mar 10:05:25 10:08:10 17° 90° (E) 10:11:08 145.822/145.860
PHONESAT 2.4 28 Mar 10:13:27 10:16:47 39° 179° (S) 10:20:08 2401.200-2431.200
DOVE 4 28 Mar 10:14:40 10:18:38 37° 97° (E) 10:22:48 437.250
Oscar 11 28 Mar 10:16:52 10:19:16 15° 89° (E) 10:21:51 145.826/435.025
GOMX 1 28 Mar 10:19:05 10:23:17 60° 101° (E) 10:27:40 467.674
ANTELSAT 28 Mar 10:21:47 10:24:47 19° 65° (ENE) 10:27:57 437.575/2403.000
DANDE 28 Mar 10:25:32 10:28:27 19° 264° (W) 10:31:50 436.750
UWE-3 28 Mar 10:25:37 10:27:18 12° 87° (E) 10:29:14 435.000/436.395/437.385
COMPASS 1 28 Mar 10:26:51 10:30:55 43° 98° (E) 10:34:59 437.405
CUBEBUG 2 28 Mar 10:26:57 10:29:31 15° 89° (E) 10:32:18 437.445
ZACube-1 28 Mar 10:37:08 10:39:08 13° 88° (E) 10:41:21 437.345
QB50P1 28 Mar 10:37:17 10:39:39 15° 63° (ENE) 10:42:10 145.935-145.965
DUCHIFAT 1 28 Mar 10:39:52 10:42:19 16° 63° (ENE) 10:44:55 145.980
BEESAT 2 28 Mar 10:42:49 10:43:59 11° 110° (ESE) 10:45:22 435.950
QB50P2 28 Mar 10:50:46 10:53:53 21° 66° (ENE) 10:57:05 145.880/145.840
CANX-2 28 Mar 10:52:23 10:56:41 63° 286° (WNW) 11:00:56 2200.000
HO-68 28 Mar 10:59:05 11:06:20 84° 288° (WNW) 11:13:33 435.675
BRITE-PL 28 Mar 11:03:59 11:07:40 30° 290° (WNW) 11:11:24 437.365/2234.400
CUTE 1.7 + AOD 2 28 Mar 11:06:38 11:10:48 49° 288° (WNW) 11:14:58 437.475
UNISAT 6 28 Mar 11:16:29 11:20:43 68° 75° (ENE) 11:25:02 437.425
BEESAT 3 28 Mar 11:18:48 11:22:24 31° 117° (ESE) 11:26:05 437.485
POPSAT HIP 1 28 Mar 11:18:58 11:22:51 38° 70° (ENE) 11:26:48 437.405
UKube-1 28 Mar 11:21:56 11:25:33 26° 95° (E) 11:29:12 .
VERMONT LUNAR 28 Mar 11:22:34 11:25:13 21° 199° (SSW) 11:27:52 437.305
DELFI C3 28 Mar 11:24:10 11:28:15 58° 100° (E) 11:32:18 145.870
BUGSAT 1 28 Mar 11:25:39 11:29:21 33° 70° (ENE) 11:33:05 437.445
TIGRISAT 28 Mar 11:27:23 11:31:38 87° 76° (ENE) 11:35:58 435.000
NANOSAT C BR1 28 Mar 11:29:57 11:34:01 50° 72° (ENE) 11:38:07 145.865
DX 1 28 Mar 11:30:06 11:34:02 33° 97° (E) 11:37:59 434.975-435.025
POLYITAN 1 28 Mar 11:32:54 11:37:00 55° 73° (ENE) 11:41:08 437.675
AAUSAT CUBESAT 2 28 Mar 11:36:30 11:40:28 38° 289° (WNW) 11:44:23 437.432
HUMSAT D 28 Mar 11:37:43 11:41:23 28° 95° (E) 11:45:07 437.325/437.525
SEEDS 28 Mar 11:38:17 11:41:59 28° 292° (WNW) 11:45:38 437.485
CINEMA 3 28 Mar 11:41:29 11:45:43 52° 287° (WNW) 11:50:07 145.822/145.860
AIST 2 28 Mar 11:45:02 11:47:57 19° 112° (ESE) 11:51:01 435.215
Oscar 11 28 Mar 11:51:35 11:55:53 57° 287° (WNW) 12:00:09 145.826/435.025
PHONESAT 2.4 28 Mar 11:51:41 11:54:45 27° 196° (SSW) 11:57:48 2401.200-2431.200
DOVE 4 28 Mar 11:52:54 11:56:18 23° 293° (WNW) 11:59:42 437.250
ANTELSAT 28 Mar 11:57:15 12:01:20 44° 262° (W) 12:05:29 437.575/2403.000
GOMX 1 28 Mar 11:58:41 12:01:05 15° 296° (WNW) 12:03:22 467.674
FUNcube-1 28 Mar 11:59:15 12:03:37 89° 284° (WNW) 12:08:05 145.935
UWE-3 28 Mar 12:00:01 12:04:23 71° 285° (WNW) 12:08:50 435.000/436.395/437.385
CUBEBUG 2 28 Mar 12:02:19 12:06:36 56° 287° (WNW) 12:11:00 437.445
COMPASS 1 28 Mar 12:03:14 12:06:22 20° 295° (WNW) 12:09:23 437.405
VELOX 1 28 Mar 12:04:40 12:08:41 34° 97° (E) 12:12:43 145.980
AISAT 28 Mar 12:08:40 12:12:49 39° 98° (E) 12:16:57 437.250
CUBEBUG 1 28 Mar 12:09:20 12:12:19 18° 91° (E) 12:15:24 437.445
QB50P1 28 Mar 12:10:58 12:15:08 58° 259° (W) 12:19:19 145.935-145.965
ZACube-1 28 Mar 12:11:39 12:15:59 65° 286° (WNW) 12:20:24 437.345
DUCHIFAT 1 28 Mar 12:13:38 12:17:47 55° 260° (W) 12:21:55 145.980
BEESAT 2 28 Mar 12:17:26 12:21:34 81° 306° (NW) 12:25:46 435.950
QB50P2 28 Mar 12:25:35 12:29:34 39° 262° (W) 12:33:34 145.880/145.840
ESTCUBE 1 28 Mar 12:33:44 12:37:57 37° 97° (E) 12:42:08 437.505/2401.250
Oscar 19 28 Mar 12:34:26 12:36:05 12° 57° (ENE) 12:38:00 437.125/150
50 SAT 28 Mar 12:38:47 12:42:50 88° 101° (E) 12:46:54 437.505
HO-68 28 Mar 12:48:11 12:53:11 20° 307° (NW) 12:57:55 435.675
POPSAT HIP 1 28 Mar 12:55:42 12:58:56 20° 268° (W) 13:02:03 437.405
UNISAT 6 28 Mar 12:56:26 12:58:07 12° 273° (W) 12:59:36 437.425
BEESAT 3 28 Mar 12:56:42 13:00:26 32° 315° (NW) 13:04:11 437.485
UKube-1 28 Mar 12:57:53 13:01:44 32° 292° (WNW) 13:05:33 .
DELFI C3 28 Mar 13:00:42 13:03:01 14° 297° (WNW) 13:05:11 145.870
BUGSAT 1 28 Mar 13:01:32 13:04:56 23° 266° (W) 13:08:13 437.445
DX 1 28 Mar 13:06:35 13:10:11 25° 294° (WNW) 13:13:42 434.975-435.025
NANOSAT C BR1 28 Mar 13:07:33 13:10:13 16° 270° (W) 13:12:44 145.865
POLYITAN 1 28 Mar 13:10:56 13:13:21 14° 271° (W) 13:15:36 437.675
HUMSAT D 28 Mar 13:13:28 13:17:08 28° 291° (WNW) 13:20:47 437.325/437.525
AIST 2 28 Mar 13:22:02 13:26:13 53° 310° (NW) 13:30:27 435.215
ITAMSAT 1 28 Mar 13:35:53 13:38:40 15° 58° (ENE) 13:41:40 435.822/435.867
FUNcube-1 28 Mar 13:38:14 13:39:23 11° 299° (WNW) 13:40:20 145.935
VELOX 1 28 Mar 13:41:29 13:45:09 25° 294° (WNW) 13:48:43 145.980
CUBEBUG 1 28 Mar 13:44:49 13:48:58 45° 289° (WNW) 13:53:05 437.445
AISAT 28 Mar 13:45:44 13:49:14 23° 295° (WNW) 13:52:38 437.250
TISAT 1 28 Mar 13:52:49 13:56:56 51° 100° (E) 14:01:02 437.305
BEESAT 2 28 Mar 13:58:01 14:00:26 15° 327° (NNW) 14:02:47 435.950
SPROUT 28 Mar 13:58:32 14:02:50 71° 102° (ESE) 14:07:06 437.525
SWISSCUBE 28 Mar 14:05:52 14:08:10 14° 87° (E) 14:10:41 437.505
YUBILEINY 28 Mar 14:06:29 14:14:14 38° 86° (E) 14:22:11 435.215
BEESAT 28 Mar 14:09:05 14:11:21 14° 87° (E) 14:13:51 436.000
Oscar 19 28 Mar 14:09:34 14:14:41 76° 73° (ENE) 14:19:49 437.125/150
ESTCUBE 1 28 Mar 14:10:57 14:14:40 25° 294° (WNW) 14:18:17 437.505/2401.250
Gurwin Techsat 1B 28 Mar 14:16:01 14:20:19 26° 64° (ENE) 14:24:42 435.225
O/OREOS (USA 219) 28 Mar 14:39:03 14:43:28 46° 60° (ENE) 14:47:50 437.305
ITUPSAT 1 28 Mar 14:53:38 14:58:02 36° 96° (E) 15:02:28 437.325
AO-7 28 Mar 14:59:23 15:05:42 26° 52° (NE) 15:12:13 29.400- 29.500
AIST 2 28 Mar 15:04:10 15:05:50 12° 331° (NNW) 15:07:23 435.215
ITAMSAT 1 28 Mar 15:12:18 15:17:33 86° 254° (WSW) 15:22:49 435.822/435.867
PCSat 28 Mar 15:29:12 15:33:49 30° 111° (ESE) 15:38:34 145.827
TISAT 1 28 Mar 15:29:39 15:32:23 17° 296° (WNW) 15:34:59 437.305
SPROUT 28 Mar 15:36:21 15:38:25 13° 298° (WNW) 15:40:19 437.525
SWISSCUBE 28 Mar 15:41:51 15:46:40 72° 286° (WNW) 15:51:24 437.505
BEESAT 28 Mar 15:45:01 15:49:50 73° 286° (WNW) 15:54:35 436.000
HORYU 2 28 Mar 15:47:49 15:51:56 40° 70° (ENE) 15:56:07 437.375
Oscar 19 28 Mar 15:51:54 15:54:43 14° 273° (W) 15:57:19 437.125/150
Gurwin Techsat 1B 28 Mar 15:54:56 16:00:04 47° 261° (W) 16:05:12 435.225
YUBILEINY 28 Mar 16:02:16 16:10:52 53° 287° (WNW) 16:19:28 435.215
JAS-2 28 Mar 16:07:02 16:13:24 40° 64° (ENE) 16:20:25 435.910
KKS-1 28 Mar 16:11:25 16:15:40 43° 98° (E) 16:19:56 437.445
O/OREOS (USA 219) 28 Mar 16:19:14 16:22:35 20° 258° (WSW) 16:25:48 437.305
AIST 1 28 Mar 16:19:36 16:23:55 67° 79° (E) 16:28:11
ITUPSAT 1 28 Mar 16:31:44 16:35:51 28° 294° (WNW) 16:39:54 437.325
STARS 28 Mar 16:45:57 16:50:20 65° 101° (ESE) 16:54:43 437.465
AO-7 28 Mar 16:49:20 16:57:40 86° 252° (WSW) 17:06:02 29.400- 29.500
ITAMSAT 1 28 Mar 16:56:07 16:57:57 11° 275° (W) 16:59:27 435.822/435.867
PCSat 28 Mar 17:11:54 17:17:06 45° 309° (NW) 17:22:20 145.827
SWISSCUBE 28 Mar 17:23:01 17:23:44 10° 303° (WNW) 17:24:11 437.505
HORYU 2 28 Mar 17:25:18 17:28:47 22° 268° (W) 17:32:11 437.375
BEESAT 28 Mar 17:26:05 17:26:54 10° 303° (WNW) 17:27:28 436.000
Cubesat XI-IV 28 Mar 17:28:13 17:30:56 15° 57° (ENE) 17:33:51 437.490
CUTE-I 28 Mar 17:28:24 17:31:04 14° 57° (ENE) 17:33:57 437.470
MOZHAYETS 4 28 Mar 17:39:00 17:42:43 24° 92° (E) 17:46:31
KKS-1 28 Mar 17:48:42 17:52:05 21° 295° (WNW) 17:55:22 437.445
M-CUBED/EXP-1 PRIME 28 Mar 17:50:07 17:51:00 11° 90° (E) 17:52:12 437.505
JAS-2 28 Mar 17:51:41 17:58:19 48° 265° (W) 18:05:37 435.910
AIST 1 28 Mar 17:59:27 18:01:03 12° 276° (W) 18:02:25
YUBILEINY 28 Mar 18:07:14 18:10:28 12° 313° (NW) 18:13:08 435.215
RS-15 28 Mar 18:15:19 18:19:05 13° 97° (E) 18:23:51 29.354- 29.394
STARS 28 Mar 18:23:48 18:26:22 15° 298° (WNW) 18:28:46 437.465
AO-7 28 Mar 18:46:06 18:51:48 19° 273° (W) 18:57:06 29.400- 29.500
BEESAT 2 28 Mar 18:57:54 19:00:49 18° 37° (NE) 19:03:47 435.950
AUBIESAT-1 28 Mar 18:58:20 19:02:58 44° 103° (ESE) 19:07:32 437.475
PCSat 28 Mar 18:59:44 19:02:01 12° 333° (NNW) 19:04:10 145.827
Cubesat XI-IV 28 Mar 19:04:57 19:10:20 87° 78° (ENE) 19:15:46 437.490
CUTE-I 28 Mar 19:05:04 19:10:27 87° 77° (ENE) 19:15:51 437.470
MOZHAYETS 4 28 Mar 19:15:46 19:20:07 39° 290° (WNW) 19:24:25
M-CUBED/EXP-1 PRIME 28 Mar 19:21:47 19:26:41 83° 109° (ESE) 19:31:29 437.505
CUBESAT XI-V 28 Mar 19:23:20 19:26:58 23° 92° (E) 19:30:40 437.345
BEESAT 3 28 Mar 19:35:40 19:39:33 38° 47° (NE) 19:43:24 437.485
HO-68 28 Mar 19:44:33 19:49:26 21° 53° (NE) 19:54:32 435.675
STRAND 1 28 Mar 19:47:24 19:51:19 22° 92° (E) 19:55:20 437.568
AIST 2 28 Mar 20:03:52 20:07:31 27° 42° (NE) 20:11:09 435.215
CANX-2 28 Mar 20:13:56 20:15:53 13° 62° (ENE) 20:18:01 2200.000
RS-15 28 Mar 20:18:45 20:29:20 63° 117° (ESE) 20:40:13 29.354- 29.394
GONETS M04 28 Mar 20:19:19 20:27:41 57° 91° (E) 20:36:12
CUTE 1.7 + AOD 2 28 Mar 20:27:17 20:29:53 16° 64° (ENE) 20:32:38 437.475
SO-50 28 Mar 20:30:56 20:35:34 77° 124° (SE) 20:40:24 436.795
AUBIESAT-1 28 Mar 20:33:32 20:37:33 26° 300° (WNW) 20:41:29 437.475
BEESAT 2 28 Mar 20:35:18 20:39:26 70° 238° (WSW) 20:43:30 435.950
PRISM 28 Mar 20:35:47 20:40:01 83° 285° (WNW) 20:44:10 437.425
BRITE-PL 28 Mar 20:38:21 20:42:40 38° 71° (ENE) 20:46:47 437.365/2234.400
Cubesat XI-IV 28 Mar 20:48:41 20:51:17 13° 274° (W) 20:53:35 437.490
CUTE-I 28 Mar 20:48:44 20:51:22 13° 274° (W) 20:53:41 437.470
AAUSAT CUBESAT 2 28 Mar 20:54:54 20:57:48 19° 65° (ENE) 21:00:50 437.432
SEEDS 28 Mar 20:56:49 21:00:19 27° 68° (ENE) 21:03:56 437.485
M-CUBED/EXP-1 PRIME 28 Mar 20:58:00 21:00:59 16° 305° (NW) 21:03:49 437.505
CUBESAT XI-V 28 Mar 21:00:14 21:04:36 40° 290° (WNW) 21:08:54 437.345
CINEMA 3 28 Mar 21:09:51 21:12:43 19° 65° (ENE) 21:15:42 145.822/145.860
